Grove, OK

5:09 PM CST on December 11, 2017 (GMT -0600)
Grove Municipal

Weather History for KGMJ - March, 2014

Change the Weather History Date:

Monday, March 10, 2014

  Actual Average (KSLG) Record (KSLG)
Temperature  
Mean Temperature 58 °F -  
Max Temperature 75 °F 52 °F 73 °F (2006)
Min Temperature 41 °F 33 °F 12 °F (1998)
Degree Days  
Heating Degree Days 7    
Growing Degree Days 8 (Base 50)    
Moisture  
Dew Point 38 °F    
Average Humidity 60    
Maximum Humidity 100    
Minimum Humidity 20    
Precipitation  
Precipitation 0.00 in - - ()
Sea Level Pressure  
Sea Level Pressure 29.95 in    
Wind  
Wind Speed 7 mph (SSW)    
Max Wind Speed 18 mph    
Max Gust Speed 25 mph    
Visibility 8 miles    
Events      
Averages and records for this station are not official NWS values.
T = Trace of Precipitation, MM = Missing Value Source: NWS Daily Summary

Daily Weather History Graph

Daily Weather History Graph

Search for Another Location

Airport or City:

Trip Planner

Search our weather history database for the weather conditions in past years. The results will help you decide how hot, cold, wet, or windy it might be!

Date:

Astronomy

Mar. 10, 2014 Rise Set
Actual Time 7:37 AM CDT 7:21 PM CDT
Civil Twilight 7:11 AM CDT 7:47 PM CDT
Nautical Twilight 6:41 AM CDT 8:17 PM CDT
Astronomical Twilight 6:11 AM CDT 8:47 PM CDT
Moon 2:12 PM CDT (3/10) 3:43 AM CDT (3/10)
Length of Visible Light 12h 36m
Length of Day
11h 44m
Waxing Gibbous, 70% of the Moon is Illuminated
Mar 10
Waxing Gibbous
Mar 16
Full
Mar 23
Last Quarter
Mar 30
New
Apr 7
First Quarter

Hourly Weather History & Observations

Time (CDT) Temp. Windchill Dew Point Humidity Pressure Visibility Wind Dir Wind Speed Gust Speed Precip Events Conditions
12:15 AM 42.8 °F 40.1 °F 42.8 °F 100% 30.13 in 5.0 mi South 4.6 mph - N/A   Clear
12:35 AM 41.0 °F 39.0 °F 41.0 °F 100% 30.12 in 5.0 mi South 3.5 mph - N/A   Clear
12:55 AM 41.0 °F 39.0 °F 41.0 °F 100% 30.11 in 4.0 mi South 3.5 mph - N/A   Clear
1:15 AM 42.8 °F 39.3 °F 42.8 °F 100% 30.10 in 5.0 mi South 5.8 mph - N/A   Clear
1:35 AM 42.8 °F 40.1 °F 42.8 °F 100% 30.10 in 5.0 mi South 4.6 mph - N/A   Clear
1:55 AM 42.8 °F 39.3 °F 42.8 °F 100% 30.10 in 5.0 mi South 5.8 mph - N/A   Clear
2:15 AM 42.8 °F 39.3 °F 42.8 °F 100% 30.09 in 5.0 mi South 5.8 mph - N/A   Clear
2:35 AM 42.8 °F 39.3 °F 42.8 °F 100% 30.08 in 5.0 mi South 5.8 mph - N/A   Clear
2:55 AM 42.8 °F 37.5 °F 42.8 °F 100% 30.07 in 5.0 mi South 9.2 mph - N/A   Clear
3:15 AM 42.8 °F 40.1 °F 42.8 °F 100% 30.07 in 5.0 mi South 4.6 mph - N/A   Clear
3:35 AM 42.8 °F 41.1 °F 42.8 °F 100% 30.07 in 5.0 mi SSW 3.5 mph - N/A   Clear
3:55 AM 42.8 °F - 42.8 °F 100% 30.06 in 5.0 mi Calm Calm - N/A   Clear
4:15 AM 42.8 °F 40.1 °F 42.8 °F 100% 30.06 in 5.0 mi SSW 4.6 mph - N/A   Clear
4:35 AM 42.8 °F 41.1 °F 42.8 °F 100% 30.06 in 5.0 mi SSW 3.5 mph - N/A   Clear
4:55 AM 42.8 °F 40.1 °F 42.8 °F 100% 30.05 in 5.0 mi South 4.6 mph - N/A   Clear
5:15 AM 42.8 °F 38.6 °F 42.8 °F 100% 30.04 in 5.0 mi South 6.9 mph - N/A   Clear
5:35 AM 41.0 °F 36.4 °F 41.0 °F 100% 30.04 in 5.0 mi South 6.9 mph - N/A   Clear
5:55 AM 41.0 °F 39.0 °F 41.0 °F 100% 30.05 in 5.0 mi SSW 3.5 mph - N/A   Clear
6:15 AM 41.0 °F 39.0 °F 41.0 °F 100% 30.05 in 5.0 mi SW 3.5 mph - N/A   Clear
6:35 AM 42.8 °F 40.1 °F 42.8 °F 100% 30.05 in 7.0 mi SSW 4.6 mph - N/A   Clear
6:55 AM 41.0 °F 36.4 °F 41.0 °F 100% 30.04 in 7.0 mi SSW 6.9 mph - N/A   Clear
7:15 AM 41.0 °F - 41.0 °F 100% 30.03 in 7.0 mi Calm Calm - N/A   Clear
7:35 AM 41.0 °F - 41.0 °F 100% 30.03 in 5.0 mi Calm Calm - N/A   Clear
7:55 AM 42.8 °F - 42.8 °F 100% 30.03 in 5.0 mi Calm Calm - N/A   Clear
8:15 AM 42.8 °F 40.1 °F 42.8 °F 100% 30.03 in 5.0 mi South 4.6 mph - N/A   Clear
8:35 AM 42.8 °F 41.1 °F 42.8 °F 100% 30.03 in 5.0 mi South 3.5 mph - N/A   Clear
8:55 AM 46.4 °F 43.5 °F 46.4 °F 100% 30.03 in 5.0 mi South 5.8 mph - N/A   Clear
9:15 AM 50.0 °F - 44.6 °F 82% 30.02 in 7.0 mi SSW 8.1 mph 17.3 mph N/A   Clear
9:35 AM 51.8 °F - 42.8 °F 71% 30.02 in 10.0 mi SSW 13.8 mph 21.9 mph N/A   Clear
9:55 AM 53.6 °F - 42.8 °F 67% 30.01 in 10.0 mi SSW 9.2 mph 16.1 mph N/A   Clear
10:15 AM 53.6 °F - 42.8 °F 67% 30.00 in 10.0 mi SSW 12.7 mph - N/A   Clear
10:40 AM 57.2 °F - 42.8 °F 59% 30.00 in 10.0 mi SSW 10.4 mph 17.3 mph N/A   Clear
10:55 AM 59.0 °F - 41.0 °F 51% 30.00 in 10.0 mi SW 15.0 mph 19.6 mph N/A   Clear
11:15 AM 60.8 °F - 41.0 °F 48% 29.99 in 10.0 mi SSW 16.1 mph 24.2 mph N/A   Clear
11:35 AM 62.6 °F - 39.2 °F 42% 29.98 in 10.0 mi SSW 12.7 mph 18.4 mph N/A   Clear
11:55 AM 64.4 °F - 39.2 °F 40% 29.97 in 10.0 mi SSW 16.1 mph - N/A   Clear
12:15 PM 66.2 °F - 39.2 °F 37% 29.96 in 10.0 mi SSW 15.0 mph 19.6 mph N/A   Clear
12:35 PM 68.0 °F - 39.2 °F 35% 29.95 in 10.0 mi SSW 15.0 mph - N/A   Clear
12:55 PM 69.8 °F - 37.4 °F 31% 29.95 in 10.0 mi SSW 13.8 mph 17.3 mph N/A   Clear
1:15 PM 69.8 °F - 37.4 °F 31% 29.94 in 10.0 mi SW 11.5 mph 18.4 mph N/A   Clear
1:35 PM 69.8 °F - 35.6 °F 28% 29.93 in 10.0 mi SW 13.8 mph 19.6 mph N/A   Clear
1:55 PM 71.6 °F - 35.6 °F 27% 29.92 in 10.0 mi WSW 10.4 mph 20.7 mph N/A   Clear
2:15 PM 71.6 °F - 35.6 °F 27% 29.91 in 10.0 mi West 9.2 mph - N/A   Clear
2:35 PM 71.6 °F - 37.4 °F 29% 29.88 in 10.0 mi West 6.9 mph - N/A   Clear
2:55 PM 73.4 °F - 37.4 °F 27% 29.88 in 10.0 mi SW 12.7 mph - N/A   Clear
3:20 PM 73.4 °F - 35.6 °F 25% 29.87 in 10.0 mi SW 16.1 mph - N/A   Clear
3:35 PM 73.4 °F - 35.6 °F 25% 29.86 in 10.0 mi SW 13.8 mph 23.0 mph N/A   Clear
3:55 PM 73.4 °F - 33.8 °F 23% 29.86 in 10.0 mi SW 15.0 mph 21.9 mph N/A   Clear
4:15 PM 73.4 °F - 33.8 °F 23% 29.85 in 10.0 mi SW 16.1 mph 24.2 mph N/A   Clear
4:35 PM 75.2 °F - 32.0 °F 21% 29.83 in 10.0 mi SW 15.0 mph 21.9 mph N/A   Clear
4:55 PM 75.2 °F - 32.0 °F 21% 29.82 in 10.0 mi SSW 18.4 mph 25.3 mph N/A   Clear
5:15 PM 75.2 °F - 32.0 °F 21% 29.82 in 10.0 mi SW 12.7 mph - N/A   Clear
5:35 PM 75.2 °F - 32.0 °F 21% 29.81 in 10.0 mi SSW 10.4 mph 21.9 mph N/A   Clear
5:55 PM 73.4 °F - 32.0 °F 22% 29.81 in 10.0 mi WSW 10.4 mph - N/A   Clear
6:15 PM 73.4 °F - 32.0 °F 22% 29.81 in 10.0 mi SW 16.1 mph 21.9 mph N/A   Clear
6:35 PM 73.4 °F - 30.2 °F 20% 29.81 in 10.0 mi SSW 9.2 mph - N/A   Clear
6:55 PM 71.6 °F - 32.0 °F 23% 29.81 in 10.0 mi SSW 9.2 mph - N/A   Clear
7:15 PM 68.0 °F - 32.0 °F 26% 29.81 in 10.0 mi SSW 5.8 mph - N/A   Clear
7:35 PM 64.4 °F - 32.0 °F 30% 29.81 in 10.0 mi SSW 3.5 mph - N/A   Clear
8:00 PM 62.6 °F - 33.8 °F 34% 29.82 in 10.0 mi South 5.8 mph - N/A   Clear
8:15 PM 62.6 °F - 33.8 °F 34% 29.82 in 10.0 mi South 5.8 mph - N/A   Clear
8:35 PM 60.8 °F - 33.8 °F 36% 29.82 in 10.0 mi South 5.8 mph - N/A   Clear
8:55 PM 60.8 °F - 35.6 °F 39% 29.82 in 10.0 mi South 6.9 mph - N/A   Clear
9:15 PM 60.8 °F - 35.6 °F 39% 29.82 in 10.0 mi South 5.8 mph - N/A   Clear
9:35 PM 59.0 °F - 33.8 °F 39% 29.82 in 10.0 mi South 6.9 mph - N/A   Clear
9:55 PM 59.0 °F - 33.8 °F 39% 29.82 in 10.0 mi South 8.1 mph - N/A   Clear
10:15 PM 59.0 °F - 33.8 °F 39% 29.82 in 10.0 mi SSW 8.1 mph - N/A   Clear
10:35 PM 59.0 °F - 33.8 °F 39% 29.81 in 10.0 mi South 9.2 mph - N/A   Clear
10:55 PM 59.0 °F - 33.8 °F 39% 29.81 in 10.0 mi South 6.9 mph - N/A   Clear
11:15 PM 57.2 °F - 33.8 °F 41% 29.81 in 10.0 mi South 6.9 mph - N/A   Clear
11:35 PM 57.2 °F - 33.8 °F 41% 29.80 in 10.0 mi South 5.8 mph - N/A   Clear
11:55 PM 55.4 °F - 33.8 °F 44% 29.80 in 10.0 mi South 4.6 mph - N/A   Clear